TimeMDT,TemperatureF,Dew PointF,Humidity,Sea Level PressureIn,VisibilityMPH,Wind Direction,Wind SpeedMPH,Gust SpeedMPH,PrecipitationIn,Events,Conditions,WindDirDegrees,DateUTC
12:55 AM,39.9,28.9,65,30.24,10.0,ENE,3.5,-,N/A,,Clear,70,2012-10-14 06:55:00
1:55 AM,39.0,27.0,62,30.25,10.0,Calm,Calm,-,N/A,,Clear,0,2012-10-14 07:55:00
2:55 AM,39.9,27.0,60,30.25,10.0,South,4.6,-,N/A,,Partly Cloudy,190,2012-10-14 08:55:00
3:55 AM,35.1,26.1,70,30.27,10.0,WNW,4.6,-,N/A,,Clear,300,2012-10-14 09:55:00
4:55 AM,37.9,27.0,65,30.28,10.0,Calm,Calm,-,N/A,,Clear,0,2012-10-14 10:55:00
5:55 AM,34.0,26.1,73,30.30,10.0,Calm,Calm,-,N/A,,Clear,0,2012-10-14 11:55:00
6:55 AM,35.1,27.0,72,30.33,10.0,Calm,Calm,-,N/A,,Partly Cloudy,0,2012-10-14 12:55:00
7:55 AM,33.1,26.1,75,30.35,10.0,Calm,Calm,-,N/A,,Scattered Clouds,0,2012-10-14 13:55:00
8:55 AM,37.0,28.0,70,30.34,10.0,Calm,Calm,-,N/A,,Clear,0,2012-10-14 14:55:00
9:55 AM,43.0,30.0,60,30.32,10.0,Calm,Calm,-,N/A,,Clear,0,2012-10-14 15:55:00
10:55 AM,50.0,32.0,50,30.26,10.0,NE,3.5,-,N/A,,Clear,50,2012-10-14 16:55:00
11:55 AM,55.9,33.1,42,30.22,10.0,Variable,3.5,-,N/A,,Clear,0,2012-10-14 17:55:00
12:55 PM,57.9,33.1,39,30.19,10.0,North,4.6,-,N/A,,Clear,360,2012-10-14 18:55:00
2:55 PM,66.0,32.0,28,30.09,10.0,NE,5.8,-,N/A,,Clear,40,2012-10-14 20:55:00
3:55 PM,68.0,30.9,25,30.06,10.0,SE,3.5,-,N/A,,Clear,130,2012-10-14 21:55:00
4:55 PM,69.1,24.1,18,30.04,10.0,West,10.4,19.6,N/A,,Clear,270,2012-10-14 22:55:00
5:55 PM,66.9,24.1,20,30.06,10.0,WSW,8.1,-,N/A,,Clear,250,2012-10-14 23:55:00
6:55 PM,64.9,26.1,23,30.06,10.0,West,9.2,-,N/A,,Clear,260,2012-10-15 00:55:00
7:55 PM,63.0,28.0,27,30.08,10.0,West,6.9,-,N/A,,Clear,280,2012-10-15 01:55:00
8:55 PM,59.0,27.0,29,30.07,10.0,South,3.5,-,N/A,,Clear,180,2012-10-15 02:55:00
9:55 PM,57.0,27.0,32,30.07,10.0,SW,4.6,-,N/A,,Clear,230,2012-10-15 03:55:00
10:55 PM,53.1,28.0,38,30.04,10.0,Calm,Calm,-,N/A,,Clear,0,2012-10-15 04:55:00
11:55 PM,50.0,32.0,50,30.01,8.0,Calm,Calm,-,N/A,,Clear,0,2012-10-15 05:55:00